User: anonymous   Login
Location: *
(37.9500°N, 27.3666°E)
Time: 03:39:26
(UTC+00:00)
Language:

Meteor 1-4 Rocket - Orbit

View from above orbital plane
View from above orbital plane
View from above satellite
View from above satellite

Ground track
Ground track

The orbit data is extracted from the following two-line orbital elements,

1 04394U 70037B   22021.55867962  .00003844  00000-0  12175-3 0  9990
2 04394  81.2401 198.2761 0037526 134.9939 225.4351 15.31748525821962
Epoch (UTC): 21 January 2022 13:24:29
Eccentricity: 0.0037526
inclination: 81.2401°
perigee height: 445 km
apogee height: 496 km
right ascension of ascending node: 198.2761°
argument of perigee: 134.9939°
revolutions per day: 15.31748525
mean anomaly at epoch: 225.4351°
orbit number at epoch: 82196

The dashed part of the orbit path shows where the satellite is in the earth's shadow,  

DLR